Denison
Saturday 10:55 PM
Temperature37° (46°/21°)
Dew Point28°
Feels Like33°
Relative Humidity70
%
Visibility10
mi
Pressure1020.3
mb
Wind DirectionESE
120°
Wind Speed6
mph
Precipitation Today0.00"

Last 30 Observations

Time PresWx Temp DP Feels RH% Vsby Pressure Ceiling Direction Speed 1h Precip
10:35 PM 36° 28° 32°75
%
10
mi
1020.3
mb
10,000
ft
ESE
110°
5
mph
0.00"
10:15 PM 36° 28° 31°75
%
10
mi
1020.3
mb
10,000
ft
ESE
110°
6
mph
0.00"
9:55 PM 36° 28° 30°75
%
10
mi
1020.3
mb
10,000
ft
ESE
110°
7
mph
0.00"
9:35 PM 36° 28° 29°75
%
10
mi
1020.3
mb
E
100°
8
mph
0.00"
9:15 PM 37° 27° 31°65
%
10
mi
1020.3
mb
ESE
110°
8
mph
0.00"
8:55 PM 37° 27° 31°65
%
10
mi
1020.3
mb
E
100°
8
mph
0.00"
8:35 PM 39° 28° 34°65
%
10
mi
1020.0
mb
ESE
120°
7
mph
0.00"
8:15 PM 39° 27° 35°60
%
10
mi
1020.0
mb
ESE
110°
6
mph
0.00"
7:55 PM 41° 27° 37°56
%
10
mi
1020.3
mb
ESE
110°
6
mph
0.00"
7:35 PM 43° 27° 40°52
%
10
mi
1020.3
mb
ESE
120°
5
mph
0.00"
7:15 PM 45° 27° 41°49
%
10
mi
1020.3
mb
ESE
120°
7
mph
0.00"
6:55 PM 46° 27° 42°46
%
10
mi
1020.3
mb
SE
140°
9
mph
0.00"
6:35 PM 46° 27° 41°46
%
10
mi
1020.3
mb
SE
130°
11
mph
0.00"
6:15 PM 46° 27° 41°46
%
10
mi
1020.3
mb
SE
130°
10
mph
0.00"
5:55 PM 46° 28° 42°49
%
10
mi
1020.3
mb
SE
130°
8
mph
0.00"
5:35 PM 46° 28° 41°49
%
10
mi
1020.3
mb
SE
140°
11
mph
0.00"
5:15 PM 46° 27° 43°46
%
10
mi
1020.3
mb
ESE
120°
6
mph
(G14)
0.00"
4:55 PM 46° 27° 43°46
%
10
mi
1020.7
mb
SE
130°
7
mph
0.00"
4:35 PM 46° 27° 41°46
%
10
mi
1020.7
mb
SSE
150°
11
mph
0.00"
4:15 PM 46° 27° 42°46
%
10
mi
1021.0
mb
ESE
110°
8
mph
(G15)
0.00"
3:55 PM 46° 25° 42°42
%
10
mi
1021.0
mb
E
100°
9
mph
0.00"
3:35 PM 45° 27° 40°49
%
10
mi
1021.3
mb
ESE
110°
8
mph
0.00"
3:15 PM 45° 25° 41°45
%
10
mi
1021.7
mb
E
90°
7
mph
(G15)
0.00"
2:55 PM 45° 25° 40°45
%
10
mi
1022.0
mb
ESE
110°
9
mph
(G16)
0.00"
2:35 PM 45° 25° 39°45
%
10
mi
1022.4
mb
E
90°
11
mph
0.00"
2:15 PM 43° 27° 39°52
%
10
mi
1022.7
mb
Variable 7
mph
0.00"
1:55 PM 41° 25° 36°52
%
10
mi
1023.0
mb
ESE
110°
8
mph
(G15)
0.00"
1:35 PM 39° 25° 34°56
%
10
mi
1023.4
mb
ESE
110°
7
mph
0.00"
1:15 PM 39° 25° 33°56
%
10
mi
1023.7
mb
ENE
60°
9
mph
0.00"
12:55 PM 37° 25° 31°60
%
10
mi
1024.1
mb
E
90°
8
mph
0.00"